User: anonymous   Login
Location: Unspecified
(0.0000°N, 0.0000°E)
Time: 23:02:04
(UTC+00:00)
Language:

EUTE 25B - Orbit

View from above orbital plane
View from above orbital plane
View from above satellite
View from above satellite

Ground track
Ground track

The orbit is defined by the following mean orbital elements,

1 39233U          26145.58884178 +.00000000 +00000-0 +00000-0 0 00000
2 39233   0.0521   8.9938 0002665  49.4286  62.2142  1.00271406    07
Epoch (UTC): 25 May 2026 14:07:55
Eccentricity: 0.0002665
inclination: 0.0521°
perigee height: 35775 km
apogee height: 35798 km
right ascension of ascending node: 8.9938°
argument of perigee: 49.4286°
revolutions per day: 1.00271406
mean anomaly at epoch: 62.2142°

The dashed part of the orbit path shows where the satellite is in the earth's shadow,  

DLR